COMPLETED DISPATCHED CALLS FOR SERVICE

Welcome to the Jacksonville Sheriff’s Office Completed Dispatched Calls for Service webpage. This page displays calls for service made to the Jacksonville Sheriff's Office that have recently been completed. The data on this page is refreshed automatically.

This information is not intended to be used as official crime data. This program does not provide information about all crimes, and excludes specific incidents such as sexual assaults and child abuse.

Disclaimer: The Jacksonville Sheriff's Office makes every effort to produce and publish current and accurate information. No warranties, expressed or implied, are provided for the data herein, its use, or its interpretation. The services provided are for informational purposes only and should not be relied on for any type of legal action.

Last refreshed 8/22 09:20:05

Incident # Dispatched Block Address Signal Call Description  
190822578894 8-22 08:53 N BROAD ST AND W BEAVER ST 76 ASSIST OTHER AGENCY
190822578883 8-22 08:49 FT CAROLINE RD AND ROGERO RD 1050 TRAFFIC STOP
190822578879 8-22 08:47 UNIVE/PHIL 1050 TRAFFIC STOP
190822578873 8-22 08:45 700 N LIBERTY 73 DRUG INVESTIGATION
190822578739 8-22 08:41 1000 S US 301 HWY 63 DISPUTE
190822578855 8-22 08:37 6100 CEDAR HILLS BLVD 76 ASSIST OTHER AGENCY
190822578806 8-22 08:35 BEACH BLVD AND S UNIVERSITY BLVD 38 TRAFFIC ASSIGNMENT
190822578841 8-22 08:30 4300 OCEAN ST 1050 TRAFFIC STOP
190822578823 8-22 08:27 7500 BEACH BLVD 76 ASSIST OTHER AGENCY
190822578813 8-22 08:15 600 COMMERCE CENTER DR 1066 CANCEL
190822578809 8-22 08:14 W BEAVER ST AND S JACKSON AVE 1050 TRAFFIC STOP
190822578801 8-22 08:13 7500 ARLINGTON EXPWY 1066 CANCEL
190822578805 8-22 08:13 13700 W BEAVER ST 1050 TRAFFIC STOP
190822578736 8-22 08:10 9500 103RD ST 22 DOMESTIC
190822578797 8-22 08:09 W BEAVER ST AND S JACKSON AVE 1050 TRAFFIC STOP
190822578771 8-22 07:53 9800 AUGUST DR 88 ASSAULT
190822578759 8-22 07:51 13300 BEACH BLVD 37 UNVERIFIED 911 CALL
190822578768 8-22 07:50 W BEAVER ST AND S JACKSON AVE 1050 TRAFFIC STOP
190822578758 8-22 07:48 MERRILL RD AND RED OAK DR 4 AUTO CRASH
190822578762 8-22 07:46 MARTIN LUTHER KING JR PKWY AND HAINES ST 4 AUTO CRASH
190822578761 8-22 07:45 4400 ROOSEVELT BLVD 13 SUSPICIOUS PERSON
190822578749 8-22 07:43 8700 RICARDO LN 11 ABANDONED VEHICLE
190822578737 8-22 07:42 1600 W STATE ST 63 DISPUTE
190822578697 8-22 07:40 400 S NORTHSIDE DR 56 JUVENILE COMPLAINT
190822578752 8-22 07:40 BOURGET DR AND S PATOU DR 11 ABANDONED VEHICLE
190822578748 8-22 07:39 FT CAROLINE RD AND MCCORMICK RD 50 FOUND/ABANDONED PROPERTY
190822578745 8-22 07:39 700 S CHAFFEE RD 4 AUTO CRASH
190822578743 8-22 07:37 103RD ST AND E LA VENTURA DR 4 AUTO CRASH
190822578691 8-22 07:36 4900 SKYWAY DR 9 THEFT
190822578722 8-22 07:35 3700 TOLEDO RD 4 AUTO CRASH
190822578724 8-22 07:34 7100 BUCKINGHAMSHIRE PL 22 DOMESTIC
190822578718 8-22 07:31 5800 MICHIGAN AVE 76 ASSIST OTHER AGENCY
190822578715 8-22 07:27 7100 PRESTON PINES TRL 13 SUSPICIOUS PERSON
190822578735 8-22 07:27 800 SEMINOLE RD 19 ANIMAL INVESTIGATION
190822578721 8-22 07:23 ATLANTIC BLVD AND S KERNAN BLVD 4 AUTO CRASH
190822578720 8-22 07:21 N ST JOHNS BLUFF RD AND FT CAROLINE RD 1050 TRAFFIC STOP
190822578709 8-22 07:19 7900 PEARL ST 1066 CANCEL
190822578710 8-22 07:19 1300 PRUDENTIAL DR 4 AUTO CRASH
190822578712 8-22 07:17 8800 PROMINECE 1050 TRAFFIC STOP
190822578692 8-22 07:16 10600 MONACO DR 13 SUSPICIOUS PERSON
190822578665 8-22 07:14 14000 HUBBLE DR 63 DISPUTE
190822578703 8-22 07:13 3700 BELFORT RD 8 MISSING PERSON
190822578706 8-22 07:13 5200 BRIGHTON PARK LN 63 DISPUTE
190822578705 8-22 07:13 5500 101ST ST 88J ASSAULT JUST OCCURRED
190822578701 8-22 07:12 UNIVERSITY BLVD AND PLAYA WAY 4 AUTO CRASH
190822578698 8-22 07:09 8500 SAN JOSE BLVD 54 ILLEGALLY PARKED CAR
190822578694 8-22 07:08 HAMMOND BLVD AND E I10 EXPWY 4 AUTO CRASH
190822578671 8-22 07:03 5900 COPPER CREEK DR 21C BURGLARY CONVEYANCE
190822578666 8-22 07:03 EISNER DR AND TORI LN 4 AUTO CRASH
190822578674 8-22 07:03 3000 FAYE RD 1066 CANCEL
190822578684 8-22 07:02 CRYSTAL SPRINGS RD AND OLD GAINESVILLE RD 16 ROAD OBSTRUCTION
190822578624 8-22 06:58 1400 MURRAY DR 21C BURGLARY CONVEYANCE
190822578681 8-22 06:55 FAIRFAX ST AND MARTIN LUTHER KING JR PKWY 4 AUTO CRASH
190822578680 8-22 06:53 7100 CONANT AVE 4 AUTO CRASH
190822578675 8-22 06:53 5600 W UNIVERSITY BLVD 4 AUTO CRASH
190822578667 8-22 06:46 S I95 EXPWY AND AIRPORT RD 1050 TRAFFIC STOP
190822578660 8-22 06:46 5600 CALIFORNIA AVE 3 HIT AND RUN CRASH
190822578657 8-22 06:44 SOUTHSIDE BLVD AND ATLANTIC BLVD 4 AUTO CRASH
190822578659 8-22 06:43 100 W MATHEWS BRG 16 ROAD OBSTRUCTION
190822578644 8-22 06:42 N I295 EXPWY AND W I10 EXPWY 13 SUSPICIOUS PERSON
190822578654 8-22 06:39 700 N OCEAN ST 22 DOMESTIC
190822578656 8-22 06:39 I95 NB / I295 96 ASSIST MOTORIST
190822578632 8-22 06:39 1700 W BEAVER ST 76 ASSIST OTHER AGENCY
190822578650 8-22 06:35 HODGES BLVD AND BEACH BLVD 1050 TRAFFIC STOP
190822578647 8-22 06:34 10600 TULSA RD 10 VEHICLE THEFT
190822578643 8-22 06:33 2300 JERSEY AVE 54 ILLEGALLY PARKED CAR
190822578631 8-22 06:32 MARTIN LUTHER KING DR AND NEW KINGS RD 4 AUTO CRASH
190822578639 8-22 06:31 ATLANTIC BLVD AND GIRVIN RD 16 ROAD OBSTRUCTION
190822578640 8-22 06:30 4400 BARNES RD 13 SUSPICIOUS PERSON
190822578634 8-22 06:30 100 W MATHEWS BRG 16 ROAD OBSTRUCTION
190822578636 8-22 06:29 12400 TEEGER RD 63 DISPUTE
190822578633 8-22 06:26 500 ARNAU TER 60 SUICIDE OR ATTEMPT
190822578629 8-22 06:25 COLLINS RD AND ROOSEVELT BLVD 4 AUTO CRASH
190822578630 8-22 06:24 CAPPER RD AND WOODLEY CREEK BLVD 38 TRAFFIC ASSIGNMENT
190822578627 8-22 06:22 8400 NORMANDY BLVD 76 ASSIST OTHER AGENCY
190822578625 8-22 06:20 7800 PARADISE ISLAND BLVD 16 ROAD OBSTRUCTION
190822578620 8-22 06:16 8400 SOUTHSIDE BLVD 1050 TRAFFIC STOP
190822578605 8-22 06:15 1400 W 24TH ST 22 DOMESTIC
190822578616 8-22 06:13 ATLANTIC BLVD AND MARKETPLACE DR 1050 TRAFFIC STOP
190822578615 8-22 06:12 3200 JUSTINA TER 3 HIT AND RUN CRASH
190822578612 8-22 06:10 S LANE AVE AND PARK ST 13 SUSPICIOUS PERSON
190822578611 8-22 06:10 6700 COLLINS RD 54 ILLEGALLY PARKED CAR
190822578604 8-22 06:04 4300 SALISBURY RD 63 DISPUTE
190822578608 8-22 06:04 4000 SALISBURY RD 57 PERSON CALLING FOR HELP
190822578603 8-22 05:55 300 SAGO AVE 16 ROAD OBSTRUCTION
190822578601 8-22 05:52 8800 S OLD KINGS RD 64 NOISE COMPLAINT
190822578596 8-22 05:44 4500 SAN JUAN AVE 5388 ASSAULT INVOLVING INJURY
190822578592 8-22 05:37 500 E BAY ST 60 SUICIDE OR ATTEMPT
190822578591 8-22 05:35 N MAIN ST AND ZOO PKWY 1050 TRAFFIC STOP
190822578581 8-22 05:34 5500 FIRESTONE RD 22 DOMESTIC
190822578587 8-22 05:33 6600 PICKETVILLE RD 16 ROAD OBSTRUCTION
190822578578 8-22 05:32 1000 S MCDUFF AVE 13 SUSPICIOUS PERSON
190822578572 8-22 05:26 400 TROUT RIVER DR 13 SUSPICIOUS PERSON
190822578582 8-22 05:26 11400 VERA DR 13 SUSPICIOUS PERSON
190822578573 8-22 05:24 7500 ARLINGTON EXPWY 27 MENTALLY ILL PERSON
190822578576 8-22 05:21 5100 STEPP AVE 37 UNVERIFIED 911 CALL
190822578571 8-22 05:08 SUNBEAM RD AND NEAL DR 1050 TRAFFIC STOP
190822578565 8-22 04:52 12400 TEEGER RD 63 DISPUTE
190822578564 8-22 04:49 2300 W EDGEWOOD AVE 63 DISPUTE
190822578558 8-22 04:48 N COBALT AVE AND BARMER DR 19 ANIMAL INVESTIGATION
190822578559 8-22 04:47 300 DURAY CT 10J VEHICLE THEFT JUST OCCURRED
190822578562 8-22 04:46 MONCRIEF RD AND GOLFAIR BLVD 13 SUSPICIOUS PERSON
190822578560 8-22 04:44 SPRING PARK RD AND W UNIVERSITY BLVD 13 SUSPICIOUS PERSON
190822578545 8-22 04:41 900 W 29TH ST 63 DISPUTE
190822578557 8-22 04:40 0V 1050 TRAFFIC STOP
190822578552 8-22 04:38 9400 LEM TURNER RD 13 SUSPICIOUS PERSON
190822578548 8-22 04:34 7700 INDIA AVE 63 DISPUTE
190822578546 8-22 04:31 S I95 EXPWY AND AIRPORT RD 1050 TRAFFIC STOP
190822578542 8-22 04:24 S LANE AVE AND PINNOCHIO DR 1050 TRAFFIC STOP
190822578541 8-22 04:23 BLANDING BLVD AND MORSE AVE 1050 TRAFFIC STOP
190822578540 8-22 04:22 3500 S UNIVERSITY BLVD 4 AUTO CRASH
190822578537 8-22 04:20 5200 GLENWOOD AVE 14C VANDALISM CONVEYANCE
190822578536 8-22 04:16 4000 HODGES BLVD 56 JUVENILE COMPLAINT
190822578534 8-22 04:12 2200 W EDGEWOOD AVE 27 MENTALLY ILL PERSON
190822578533 8-22 04:11 N I295 EXPWY AND E I10 EXPWY 1050 TRAFFIC STOP
190822578532 8-22 04:10 N I295 EXPWY AND WILSON BLVD 1050 TRAFFIC STOP
190822578531 8-22 04:05 S I295 EXPWY AND 103RD ST 1050 TRAFFIC STOP
190822578529 8-22 04:04 S LANE AVE AND NORMANDY BLVD 1050 TRAFFIC STOP
190822578527 8-22 04:00 3000 TAMAYA BLVD 64 NOISE COMPLAINT
190822578517 8-22 03:58 7200 ARLINGTON EXPWY 13 SUSPICIOUS PERSON
190822578524 8-22 03:52 KINKAID RD AND FURY DR 13 SUSPICIOUS PERSON
190822578523 8-22 03:52 10600 FT CAROLINE RD 50 FOUND/ABANDONED PROPERTY
190822578522 8-22 03:51 S LANE AVE AND GRACE LN 1050 TRAFFIC STOP
190822578520 8-22 03:50 100 TALLULAH AVE 27 MENTALLY ILL PERSON
190822578513 8-22 03:38 1200 IDA ST 9 THEFT
190822578515 8-22 03:37 5200 CORD AVE 63 DISPUTE
190822578510 8-22 03:29 500 W 18TH ST 1050 TRAFFIC STOP
190822578506 8-22 03:28 4800 VERMONT RD 63 DISPUTE
190822578509 8-22 03:27 105TH ST AND WESCONNETT BLVD 13 SUSPICIOUS PERSON
190822578508 8-22 03:27 11300 W BEAVER ST 1 IMPAIRED/DRUNK DRIVER
190822578507 8-22 03:25 MERRILL RD AND N I295 EXPWY 1050 TRAFFIC STOP
190822578501 8-22 03:24 FIRESTONE RD AND 103RD ST 33 DISCHARGING OF FIREARM
190822578504 8-22 03:17 1200 W 32ND ST 5388 ASSAULT INVOLVING INJURY
190822578503 8-22 03:16 14600 DUVAL RD 14C VANDALISM CONVEYANCE
190822578477 8-22 03:13 8000 MERRILL RD 63 DISPUTE
190822578496 8-22 03:10 2000 PALMDALE CT 37 UNVERIFIED 911 CALL
190822578497 8-22 03:09 E 27TH ST AND N MAIN ST 1050 TRAFFIC STOP
190822578493 8-22 03:04 8000 ATLANTIC BLVD 5388 ASSAULT INVOLVING INJURY
190822578494 8-22 03:04 TIMUQUANA RD AND CATOMA ST 13 SUSPICIOUS PERSON
190822578488 8-22 03:03 8500 TOUCHTON RD 13 SUSPICIOUS PERSON
190822578492 8-22 03:02 WINONA DR AND N MAIN ST 1050 TRAFFIC STOP
190822578491 8-22 03:01 14000 N MAIN ST 1050 TRAFFIC STOP
190822578489 8-22 03:01 N MYRTLE AVE AND MONCRIEF RD 1050 TRAFFIC STOP
190822578486 8-22 02:59 BEACH BLVD AND HODGES BLVD 3 HIT AND RUN CRASH
190822578483 8-22 02:55 14600 DUVAL RD 14C VANDALISM CONVEYANCE
190822578481 8-22 02:52 N CANAL ST AND W 21ST ST 1050 TRAFFIC STOP
190822578474 8-22 02:50 900 W 29TH ST 13 SUSPICIOUS PERSON
190822578478 8-22 02:46 3600 TIMUQUANA RD 13 SUSPICIOUS PERSON
190822578475 8-22 02:41 6600 ALISMA LN 9 THEFT
190822578472 8-22 02:40 9300 ATLANTIC BLVD 13 SUSPICIOUS PERSON
190822578471 8-22 02:40 N CANAL ST AND MARTIN LUTHER KING JR PKWY 1050 TRAFFIC STOP
190822578467 8-22 02:38 200 RIVERSIDE AVE 13 SUSPICIOUS PERSON
190822578466 8-22 02:37 KINGS RD AND HENRIETTA ST 1050 TRAFFIC STOP
190822578457 8-22 02:35 7200 DUNSON RD 13 SUSPICIOUS PERSON
190822578463 8-22 02:34 8100 ALDERMAN RD 22 DOMESTIC
190822578464 8-22 02:34 WONDERWOOD/A1A 13 SUSPICIOUS PERSON
190822578462 8-22 02:32 GOLFAIR BLVD AND N DAVIS ST 1050 TRAFFIC STOP
190822578459 8-22 02:31 1500 S LANE AVE 63 DISPUTE
190822578461 8-22 02:28 S LANE AVE AND E I10 EXPWY 1050 TRAFFIC STOP
190822578452 8-22 02:27 5500 FIRESTONE RD 63 DISPUTE
190822578458 8-22 02:26 PHILIPS HWY AND FREEDOM CROSSING TRL 13 SUSPICIOUS PERSON
190822578456 8-22 02:25 MONCRIEF RD AND W 26TH ST 1050 TRAFFIC STOP
190822578454 8-22 02:24 700 ASPEN LEAF DR 13 SUSPICIOUS PERSON
190822578455 8-22 02:24 W I10 EXPWY AND S LANE AVE 1050 TRAFFIC STOP
190822578453 8-22 02:21 3700 SPRINGFIELD BLVD 13 SUSPICIOUS PERSON
190822578444 8-22 02:20 2900 RED OAK DR 22 DOMESTIC
190822578424 8-22 02:18 4000 JONES BRANCH BLVD 4 AUTO CRASH
190822578445 8-22 02:16 7700 PLANTATION BAY DR 19 ANIMAL INVESTIGATION
190822578451 8-22 02:16 5200 WESTCHASE CT 61 FIGHT
190822578439 8-22 02:14 2700 WOOLERY DR 16 ROAD OBSTRUCTION
190822578446 8-22 02:14 10100 103RD ST 63 DISPUTE
190822578443 8-22 02:12 1500 S LANE AVE 63 DISPUTE
190822578437 8-22 02:12 10500 LEM TURNER RD 22 DOMESTIC
190822578441 8-22 02:12 1500 S LANE AVE 0 63 ARMED DISPUTE
190822578449 8-22 02:12 W 8TH ST AND S I95 EXPWY 13 SUSPICIOUS PERSON
190822578447 8-22 02:08 200 ELM ST 10R VEHICLE THEFT RECOVERY
190822578429 8-22 02:04 300 GOLFAIR BLVD 80 PROSTITUTION (ONLY)
190822578442 8-22 02:03 1400 N PEARL ST 33 DISCHARGING OF FIREARM
190822578440 8-22 02:01 FREMONT ST AND HARVESTER ST 1050 TRAFFIC STOP
190822578438 8-22 02:00 FAIRFAX ST AND KINGS RD 13 SUSPICIOUS PERSON
190822578425 8-22 01:59 2000 DUNSFORD TER 13 SUSPICIOUS PERSON
190822578436 8-22 01:57 100 W MATHEWS BRG 1050 TRAFFIC STOP
190822578435 8-22 01:56 300 DURAY CT 22 DOMESTIC
190822578434 8-22 01:56 11300 BEACH BLVD 76 ASSIST OTHER AGENCY
190822578433 8-22 01:55 1400 PALMER ST 76 ASSIST OTHER AGENCY
190822578431 8-22 01:53 CARAVAN TRL AND ATLANTIC BLVD 1050 TRAFFIC STOP
190822578422 8-22 01:53 900 W 29TH ST 13 SUSPICIOUS PERSON
190822578417 8-22 01:51 5500 FIRESTONE RD 13 SUSPICIOUS PERSON
190822578428 8-22 01:50 W 23RD ST AND GRUNTHAL ST 13 SUSPICIOUS PERSON
190822578427 8-22 01:49 1000 DUNN AVE 13 SUSPICIOUS PERSON
190822578426 8-22 01:48 S LANE AVE AND WILSON BLVD 16 ROAD OBSTRUCTION
190822578402 8-22 01:45 7200 MIMOSA GROVE TRL 63 DISPUTE
190822578423 8-22 01:45 ATLANTIC BLVD AND SCHOLARS WAY 1050 TRAFFIC STOP
190822578421 8-22 01:43 N BOWLAN ST AND FREE AVE 1050 TRAFFIC STOP
190822578420 8-22 01:42 W 30TH ST AND CHASE AVE 13 SUSPICIOUS PERSON
190822578419 8-22 01:42 BEACH BLVD AND BURKHOLDER RD 1050 TRAFFIC STOP
190822578416 8-22 01:41 5900 DAVON ST 76 ASSIST OTHER AGENCY
190822578415 8-22 01:40 700 NEW BERLIN RD 13 SUSPICIOUS PERSON
190822578413 8-22 01:40 1500 ELIZABETH ST 5388 ASSAULT INVOLVING INJURY
190822578414 8-22 01:40 11600 BEACH BLVD 13 SUSPICIOUS PERSON
190822578412 8-22 01:37 1300 RIVERPLACE BLVD 76 ASSIST OTHER AGENCY
190822578411 8-22 01:36 7700 PLANTATION BAY DR 19 ANIMAL INVESTIGATION
190822578410 8-22 01:35 S MCDUFF AVE AND DIGNAN ST 73 DRUG INVESTIGATION
190822578383 8-22 01:35 200 RAVINE ST 9 THEFT
190822578409 8-22 01:31 MONCRIEF RD AND GLENVALE RD 1050 TRAFFIC STOP
190822578407 8-22 01:30 13TH/FAIRFAX 1050 TRAFFIC STOP
190822578406 8-22 01:30 5100 GATE PKWY 57 PERSON CALLING FOR HELP
190822578405 8-22 01:29 6700 WILEY RD 13 SUSPICIOUS PERSON
190822578393 8-22 01:29 900 W ADAMS ST 13 SUSPICIOUS PERSON
190822578403 8-22 01:28 3500 S UNIVERSITY BLVD 60 SUICIDE OR ATTEMPT
190822578399 8-22 01:19 ATLANTIC BLVD AND S I295 EXPWY 1050 TRAFFIC STOP
190822578398 8-22 01:19 W 31ST ST AND MONCRIEF RD 13 SUSPICIOUS PERSON
190822578397 8-22 01:19 11900 SAN JOSE BLVD 1050 TRAFFIC STOP
190822578392 8-22 01:17 900 TAMMY COVE LN 64 NOISE COMPLAINT
190822578384 8-22 01:12 2900 MANDARIN MEADOWS DR 2 63 DISPUTE IMPAIRED/INTOXICATED
190822578390 8-22 01:11 2000 DUNSFORD TER 13 SUSPICIOUS PERSON
190822578391 8-22 01:11 LEM TURNER CIR AND LEM TURNER RD 1050 TRAFFIC STOP
190822578389 8-22 01:08 SOUTHSIDE BLVD AND N NIMITZ CT 1050 TRAFFIC STOP
190822578385 8-22 01:07 1000 SCRIVEN ST 60 SUICIDE OR ATTEMPT
190822578387 8-22 01:06 ATLANTIC BLVD AND DEBUTANTE DR 1050 TRAFFIC STOP
190822578382 8-22 01:05 4400 SPRING PARK RD 0 63 ARMED DISPUTE
190822578380 8-22 01:04 1300 RIVERPLACE BLVD 13 SUSPICIOUS PERSON
190822578377 8-22 01:00 2500 JAMMES RD 13 SUSPICIOUS PERSON
190822578376 8-22 00:59 103RD ST AND S OLD MIDDLEBURG RD 1050 TRAFFIC STOP
190822578375 8-22 00:55 3700 PHILIPS HWY 68 CON GAME/FLIM FLAM
190822578366 8-22 00:53 1100 N MARKET ST 37 UNVERIFIED 911 CALL
190822578373 8-22 00:51 1700 N DAVIS ST 60 SUICIDE OR ATTEMPT
190822578372 8-22 00:50 ST AUGUSTINE RD AND STETSON RD 1050 TRAFFIC STOP
190822578370 8-22 00:50 WEAVER RD AND CAMPENELLA DR 76 ASSIST OTHER AGENCY
190822578369 8-22 00:49 1000 DUNN AVE 96 ASSIST MOTORIST
190822578365 8-22 00:49 5100 SHENANDOAH AVE 2 63 DISPUTE IMPAIRED/INTOXICATED
190822578368 8-22 00:49 S LANE AVE AND WILSON BLVD 1050 TRAFFIC STOP
190822578359 8-22 00:48 1700 PECAN PARK RD 76 ASSIST OTHER AGENCY
190822578362 8-22 00:47 5100 SHENANDOAH AVE 2 22 DOMESTIC DISTURBANCE
190822578360 8-22 00:43 W 6TH ST AND N MYRTLE AVE 1050 TRAFFIC STOP
190822578320 8-22 00:40 2100 YULEE ST 11 ABANDONED VEHICLE
190822578358 8-22 00:40 ATLANTIC BLVD AND GIRVIN RD 1050 TRAFFIC STOP
190822578357 8-22 00:40 STEELE ST AND BARNETT ST 13 SUSPICIOUS PERSON
190822578353 8-22 00:40 7100 LEM TURNER RD 88 ASSAULT
190822578356 8-22 00:38 2700 N MARKET ST 63 DISPUTE
190822578355 8-22 00:37 N MAIN ST AND TROUT RIVER DR 1050 TRAFFIC STOP
190822578350 8-22 00:33 NEW KINGS RD AND DUNN AVE 76 ASSIST OTHER AGENCY
190822578352 8-22 00:33 GOLFAIR BLVD AND BALDWIN LN 1050 TRAFFIC STOP
190822578351 8-22 00:33 BEACH BLVD AND HODGES BLVD 4 AUTO CRASH
190822578348 8-22 00:32 MANTES AVE AND S CHERBOURG AVE 13 SUSPICIOUS PERSON
190822578349 8-22 00:31 800 N ARLINGTON RD 63 DISPUTE
190822578347 8-22 00:29 SAN JUAN/HYDE PARK 1050 TRAFFIC STOP
190822578345 8-22 00:28 BAY/I95 1050 TRAFFIC STOP
190821578283 8-22 00:28 4500 SHIRLEY AVE 63 DISPUTE
190822578344 8-22 00:27 SS CONNECTOR/TREDNICK 1050 TRAFFIC STOP
190822578331 8-22 00:27 2000 W 17TH ST 8 MISSING PERSON
190822578341 8-22 00:27 8300 SPRINGTREE RD 7 DEAD PERSON
190822578343 8-22 00:26 MONCRIEF RD AND W EDGEWOOD AVE 1050 TRAFFIC STOP
190822578338 8-22 00:23 5500 ALPHA AVE 13 SUSPICIOUS PERSON
190822578336 8-22 00:22 RUTLEDGE AVE AND OPREY ST 1050 TRAFFIC STOP
190822578330 8-22 00:18 11200 HARTS RD 63 DISPUTE
190822578333 8-22 00:17 S I95 EXPWY AND DUNN AVE 96 ASSIST MOTORIST
190821578215 8-22 00:14 900 BEA LN 22 DOMESTIC
190822578316 8-22 00:11 3900 BUNNELL DR 2 22 DOMESTIC DISTURBANCE
190822578324 8-22 00:10 SOUTHSIDE BLVD AND BEACH BLVD 1050 TRAFFIC STOP
190822578323 8-22 00:10 W 33RD ST AND MONCRIEF RD 1050 TRAFFIC STOP
190821578279 8-22 00:10 3800 PURCELLVILLE CT 63 DISPUTE
190822578322 8-22 00:08 3000 BESSENT RD 13 SUSPICIOUS PERSON
190822578321 8-22 00:08 2300 W EDGEWOOD AVE 63 DISPUTE
190821578304 8-22 00:06 7700 TIMBERLIN PARK BLVD 64 NOISE COMPLAINT
190821578213 8-22 00:05 4500 BLANDING BLVD 63 DISPUTE
190821578228 8-22 00:05 SOUTHSIDE BLVD AND BAYMEADOWS RD 96 ASSIST MOTORIST
190822578315 8-22 00:04 1000 COURT ST 2 22 DOMESTIC DISTURBANCE
190822578319 8-22 00:03 3600 HUNTER 13 SUSPICIOUS PERSON
190822578318 8-22 00:03 SAN JUAN AVE AND LAKE SHORE BLVD 13 SUSPICIOUS PERSON
190821578305 8-22 00:03 5500 ALPHA AVE 37 UNVERIFIED 911 CALL
190821578280 8-22 00:03 7800 HARE AVE 22 DOMESTIC
190821578274 8-22 00:02 1700 BRACKLAND ST 2288 DOMESTIC DISPUTE WITH/ASSAULT
190821578273 8-22 00:02 1200 W 9TH ST 14CJ VANDALISM CONVEYANCE JUST OCCURRED
190822578310 8-22 00:02 11400 SAN JOSE BLVD 5388 ASSAULT INVOLVING INJURY
190822578314 8-22 00:01 1900 LAMBERT ST 62 PERSON CUT
190822578313 8-22 00:00 BAYMEADOWS RD AND BAYMEADOWS WAY 1050 TRAFFIC STOP
190822578311 8-22 00:00 5100 N MAIN ST 13 SUSPICIOUS PERSON
190821578308 8-21 23:59 ARLINGTON EXPWY AND SOUTHSIDE CONNECTOR BLVD 1050 TRAFFIC STOP
190821578307 8-21 23:59 3800 S UNIVERSITY BLVD 5388 ASSAULT INVOLVING INJURY
190821578303 8-21 23:57 3600 N MAIN ST 10J VEHICLE THEFT JUST OCCURRED
190821578302 8-21 23:56 AVENUE B AND W 44TH ST 1050 TRAFFIC STOP
190821578202 8-21 23:56 9500 BAYMEADOWS RD 21C BURGLARY CONVEYANCE
190821578300 8-21 23:54 295/PULASKI 1050 TRAFFIC STOP
190821578299 8-21 23:53 EMERSON ST AND BEDFORD RD 13 SUSPICIOUS PERSON
190821578293 8-21 23:53 RIVERSIDE AVE AND POST ST 4 AUTO CRASH
190821578297 8-21 23:51 N OLD MIDDLEBURG RD AND WILEY RD 1050 TRAFFIC STOP
190821578296 8-21 23:51 W I10 EXPWY AND HAMMOND BLVD 1050 TRAFFIC STOP
190821578292 8-21 23:50 EAVERSON ST AND MCCONIHE ST 1050 TRAFFIC STOP
190821578289 8-21 23:48 GOLFAIR BLVD AND SPRINGFIELD BLVD 1050 TRAFFIC STOP
190821578288 8-21 23:48 N MYRTLE AVE AND W 13TH ST 13 SUSPICIOUS PERSON
190821578286 8-21 23:47 STUART ST AND W 23RD ST 1050 TRAFFIC STOP
190821578284 8-21 23:47 MERRILL RD AND HARTSFIELD RD 1050 TRAFFIC STOP
190821578282 8-21 23:45 EMERSON ST AND HUNTER RD 1050 TRAFFIC STOP
190821578277 8-21 23:44 3200 HARTLEY RD 2 IMPAIRED/INTOXICATED
190821578278 8-21 23:44 13100 ATLANTIC BLVD 4 53 TRAFFIC CRASH PERSON INJURED
190821578261 8-21 23:42 600 E 21ST ST 1066 CANCEL
190821578271 8-21 23:41 1000 BROWARD RD 64 NOISE COMPLAINT
190821578272 8-21 23:39 I295/PULASKI 1050 TRAFFIC STOP
190821578255 8-21 23:39 300 E PRINDLE DR 1066 CANCEL
190821578254 8-21 23:38 400 NAUGATUCK DR 33 DISCHARGING OF FIREARM
190821578266 8-21 23:35 W 1ST ST AND TYLER ST 13 SUSPICIOUS PERSON
190821578264 8-21 23:34 6400 PARK ST 1050 TRAFFIC STOP
190821578263 8-21 23:33 STUART ST AND GOLFAIR BLVD 1050 TRAFFIC STOP
190821578246 8-21 23:33 1700 W 14TH ST 13 SUSPICIOUS PERSON
190821578258 8-21 23:32 5300 N LAMAR DR 33 DISCHARGING OF FIREARM
190821578260 8-21 23:31 E 19TH ST AND N MAIN ST 1050 TRAFFIC STOP
190821578259 8-21 23:31 SAN JUAN AVE AND WOODMERE DR 1050 TRAFFIC STOP
190821578241 8-21 23:30 4600 SALISBURY RD 37 UNVERIFIED 911 CALL
190821578256 8-21 23:30 CORSAIR AVE AND SABRE DR 33 DISCHARGING OF FIREARM
190821578257 8-21 23:30 13300 BEACH BLVD 1050 TRAFFIC STOP
190821578253 8-21 23:28 S SHARBETH DR AND RICKER RD 13 SUSPICIOUS PERSON
190821578252 8-21 23:27 DEAN RD AND BEACH BLVD 73 DRUG INVESTIGATION
190821578251 8-21 23:26 800 DUNN AVE 96 ASSIST MOTORIST
190821578248 8-21 23:25 11300 BEACH BLVD 60 SUICIDE OR ATTEMPT
190821578247 8-21 23:25 11900 ATLANTIC BLVD 4 AUTO CRASH
190821578249 8-21 23:24 N MYRTLE AVE AND W 15TH ST 13 SUSPICIOUS PERSON
190821578244 8-21 23:23 12300 N MAIN ST 63 DISPUTE
190821578158 8-21 23:23 7900 E BAYMEADOWS CIR 56 JUVENILE COMPLAINT
190821578113 8-21 23:21 9800 103RD ST 63 DISPUTE
190821578230 8-21 23:19 5700 HATCHER CT 21R BURGLARY RESIDENCE
190821578243 8-21 23:19 S EDGEWOOD AVE AND HAMILTON ST 1050 TRAFFIC STOP
190821578242 8-21 23:18 GOLFAIR BLVD AND N DAVIS ST 1050 TRAFFIC STOP
190821578239 8-21 23:17 NEW BERLIN RD AND YELLOW BLUFF RD 16 ROAD OBSTRUCTION
190821578238 8-21 23:16 7000 EPPING FOREST TER 1066 CANCEL
190821578236 8-21 23:12 S I95 EXPWY AND EMERSON ST 4 53 TRAFFIC CRASH PERSON INJURED
190821578234 8-21 23:10 S LANE AVE AND HYDE GROVE AVE 1050 TRAFFIC STOP
190821578232 8-21 23:10 10200 ATLANTIC BLVD 1050 TRAFFIC STOP
190821578231 8-21 23:09 N MYRTLE AVE AND W 8TH ST 1050 TRAFFIC STOP
190821578229 8-21 23:08 11800 BEACH BLVD 1050 TRAFFIC STOP
190821578226 8-21 23:07 1500 ELIZABETH ST 8 MISSING PERSON
190821578227 8-21 23:07 S I95 EXPWY AND SAN MARCO BLVD 1050 TRAFFIC STOP
190821578225 8-21 23:06 1500 E 27TH ST 73 DRUG INVESTIGATION
190821578224 8-21 23:06 NORMANDY BLVD AND S LANE AVE 1050 TRAFFIC STOP
190821578220 8-21 23:05 4800 E DEER LAKE DR 76 ASSIST OTHER AGENCY
190821578221 8-21 23:04 4200 GRNDALE 1050 TRAFFIC STOP
190821578219 8-21 23:04 LAKE FOREST BLVD AND LEM TURNER RD 1050 TRAFFIC STOP
190821578197 8-21 23:03 12500 N DRAGONFLY LN 64 NOISE COMPLAINT
190821578216 8-21 23:01 NB 95/DUNN AVE 96 ASSIST MOTORIST
190821578214 8-21 23:00 DEAN RD AND BEACH BLVD 1050 TRAFFIC STOP
190821578212 8-21 23:00 SUTTON LAKES BLVD AND ATLANTIC BLVD 1050 TRAFFIC STOP
190821578204 8-21 22:59 3500 BEACH BLVD 13 SUSPICIOUS PERSON
190821578211 8-21 22:59 1900 KINGS RD 1050 TRAFFIC STOP
190821578096 8-21 22:59 400 MONUMENT RD 54 ILLEGALLY PARKED CAR
190821578210 8-21 22:59 4400 ROOSEVELT BLVD 1050 TRAFFIC STOP
190821578209 8-21 22:58 BEACH/STATION CREEK 1050 TRAFFIC STOP
190821578208 8-21 22:57 9100 LEM TURNER RD 0 23BJ ARMED ROBBERY BUSINESS JUST OCCURRED
190821578207 8-21 22:56 13000 NORMANDY BLVD 1050 TRAFFIC STOP
190821578206 8-21 22:56 11200 ATLANTIC 1050 TRAFFIC STOP
190821578160 8-21 22:56 4700 MANCHESTER RD 13 SUSPICIOUS PERSON
190821578205 8-21 22:56 ANDREWS ST AND N EDGEWOOD AVE 1050 TRAFFIC STOP
190821578152 8-21 22:55 2700 ST JOHNS AVE 14R VANDALISM RESIDENCE
190821578201 8-21 22:54 1500 W 13TH ST 73 DRUG INVESTIGATION
190821578174 8-21 22:54 11800 ALDEN RD 64 NOISE COMPLAINT
190821578200 8-21 22:53 W 13TH ST AND MCMILLAN ST 1050 TRAFFIC STOP
190821578179 8-21 22:52 12600 E ASHBROOK CIR 54 ILLEGALLY PARKED CAR
190821578159 8-21 22:52 7300 MERRILL RD 63 DISPUTE
190821578196 8-21 22:52 BROWARD RD AND DE PAUL DR 1050 TRAFFIC STOP
190821578194 8-21 22:52 WILSON BLVD AND N OLD MIDDLEBURG RD 1050 TRAFFIC STOP
190821578187 8-21 22:51 1000 REIMAN ST 13 SUSPICIOUS PERSON
190821578193 8-21 22:51 MARTIN LUTHER KING JR PKWY AND PHOENIX AVE 1050 TRAFFIC STOP
190821578192 8-21 22:51 W 13TH ST AND FAIRFAX ST 13 SUSPICIOUS PERSON
190821578189 8-21 22:50 8300 DIX ELLIS TRL 76 ASSIST OTHER AGENCY
190821578191 8-21 22:50 WILSON ST AND W 32ND ST 13 SUSPICIOUS PERSON
190821578190 8-21 22:50 W 22ND ST AND N PEARL ST 1050 TRAFFIC STOP
190821578188 8-21 22:50 5600 ANSLEY ST 1050 TRAFFIC STOP
190821578186 8-21 22:49 1800 CASSAT AVE 2288 DOMESTIC DISPUTE WITH/ASSAULT
190821578185 8-21 22:48 GLADYS ST AND W 23RD ST 1050 TRAFFIC STOP
190821578184 8-21 22:47 SUTTON LAKES BLVD AND ATLANTIC BLVD 1050 TRAFFIC STOP
190821578182 8-21 22:46 W 13TH ST AND N CANAL ST 1050 TRAFFIC STOP
190821578181 8-21 22:45 400 W 8TH ST 1050 TRAFFIC STOP
190821578180 8-21 22:45 1700 CASSAT AVE 76 ASSIST OTHER AGENCY
190821578127 8-21 22:45 3400 N ARDISIA RD 1066 CANCEL
190821578177 8-21 22:43 YOUNGERMAN CIR AND BLANDING BLVD 4 AUTO CRASH
190821578176 8-21 22:43 11200 ATLANTIC BLVD 1050 TRAFFIC STOP
190821578120 8-21 22:42 1900 S LANE AVE 63 DISPUTE
190821578175 8-21 22:41 HIRAM ST AND ELLA ST 1050 TRAFFIC STOP
190821578114 8-21 22:39 2900 SRA1A 56 JUVENILE COMPLAINT
190821578171 8-21 22:39 1100 S LANE AVE 1050 TRAFFIC STOP
190821578168 8-21 22:38 S LANE AVE AND HYDE GROVE AVE 1050 TRAFFIC STOP
190821578167 8-21 22:38 WILSON BLVD AND FIRESTONE RD 1050 TRAFFIC STOP
190821578166 8-21 22:37 SUTTON LAKES BLVD AND ATLANTIC BLVD 1050 TRAFFIC STOP
190821578165 8-21 22:37 8600 HERLONG RD 1050 TRAFFIC STOP
190821578164 8-21 22:37 E 26TH ST AND EVERGREEN AVE 1050 TRAFFIC STOP
190821578163 8-21 22:36 BEACH/STATION CREEK 1050 TRAFFIC STOP
190821578162 8-21 22:36 ATLANTIC BLVD AND S ST JOHNS BLUFF RD 1050 TRAFFIC STOP
190821578161 8-21 22:36 TYLER ST AND W 2ND ST 13 SUSPICIOUS PERSON
190821578153 8-21 22:35 300 S CELERY AVE 60 SUICIDE OR ATTEMPT
190821578156 8-21 22:34 13000 NORMANDY BLVD 1050 TRAFFIC STOP
190821578155 8-21 22:34 ANDERS BLVD AND E EVE DR 13 SUSPICIOUS PERSON
190821578151 8-21 22:32 S I95 EXPWY AND SAN DIEGO RD 96 ASSIST MOTORIST
190821578148 8-21 22:32 600 E ADAMS ST 63 DISPUTE
190821578150 8-21 22:32 TYLER ST AND WINDLE ST 13 SUSPICIOUS PERSON
190821578149 8-21 22:32 UNIVERSITY BLVD AND MACY AVE 1050 TRAFFIC STOP
190821578145 8-21 22:31 NORMANDY BLVD AND LA MARCHE DR 1050 TRAFFIC STOP
190821578144 8-21 22:31 W EDGEWOOD AVE AND FLORADALE DR 1050 TRAFFIC STOP
190821578142 8-21 22:30 10500 BEACH BLVD 1050 TRAFFIC STOP
190821578141 8-21 22:30 S LANE AVE AND WILSON BLVD 1050 TRAFFIC STOP
190821578140 8-21 22:30 3000 SOUTHSIDE BLVD 1050 TRAFFIC STOP
190821578112 8-21 22:30 9500 S PRINCETON SQUARE BLVD 63 DISPUTE
190821578086 8-21 22:29 7300 PARKER SCHOOL RD 63 DISPUTE
190821578109 8-21 22:29 UNIVERSITY BLVD AND ARLINGTON RD 4 AUTO CRASH
190821578139 8-21 22:29 1500 S LANE AVE 23I ROBBERY INDIVIDUAL
190821578137 8-21 22:28 LONESTAR/MORGANA 1050 TRAFFIC STOP
190821578136 8-21 22:28 E 3RD ST AND FLORIDA AVE 1050 TRAFFIC STOP
190821578059 8-21 22:27 7000 N MAIN ST 1066 CANCEL
190821578135 8-21 22:27 3000 SOUTHSIDE 1050 TRAFFIC STOP
190821578134 8-21 22:27 KINGS RD AND SEMINARY ST 1050 TRAFFIC STOP
190821578133 8-21 22:27 7700 INDIA AVE 5388 ASSAULT INVOLVING INJURY
190821578132 8-21 22:26 MONCRIEF RD AND W 45TH ST 1050 TRAFFIC STOP
190821578131 8-21 22:26 8900 HERLONG RD 12 RECKLESS DRIVER
190821578130 8-21 22:26 3800 DALRY DR 1050 TRAFFIC STOP
190821578129 8-21 22:26 DANDY AVE AND CENTURY ST 13 SUSPICIOUS PERSON
190821578128 8-21 22:25 W 11TH ST AND MCMILLAN ST 13 SUSPICIOUS PERSON
190821578126 8-21 22:25 S LANE AVE AND NORMANDY BLVD 1050 TRAFFIC STOP
190821578125 8-21 22:24 S I95 EXPWY AND OLD ST AUGUSTINE RD 16 ROAD OBSTRUCTION
190821578045 8-21 22:23 6000 103RD ST 14B VANDALISM BUSINESS
190821578124 8-21 22:23 EVERGREEN AVE AND CLAUDIA SPENCER ST 1050 TRAFFIC STOP
190821578122 8-21 22:22 MONCRIEF RD AND W EDGEWOOD AVE 1050 TRAFFIC STOP
190821578121 8-21 22:22 11200 ATLANTIC BLVD 1050 TRAFFIC STOP
190821578119 8-21 22:22 CLEVELAND RD AND HAMILTON CIR 1050 TRAFFIC STOP
190821578116 8-21 22:21 1700 MINDANAO DR 63 DISPUTE
190821578117 8-21 22:20 KINGS RD AND RUSHING ST 1050 TRAFFIC STOP
190821578111 8-21 22:20 1900 KINGS RD 1066 CANCEL
190821578115 8-21 22:20 BROWARD/BISCAY 1050 TRAFFIC STOP
190821578110 8-21 22:19 LABELLE ST AND HOLLYCREST DR 1050 TRAFFIC STOP
190821578108 8-21 22:18 E 2ND ST AND N MARKET ST 1050 TRAFFIC STOP
190821578106 8-21 22:18 CECIL COMMERCE CENTER PKWY AND SR23 EXIT I10EB RP 1 IMPAIRED/DRUNK DRIVER
190821578105 8-21 22:17 3000 SOUTHSIDE BLVD 1050 TRAFFIC STOP
190821578103 8-21 22:17 ARLINGTON RD AND UNIVERSITY BLVD 1050 TRAFFIC STOP
190821578101 8-21 22:16 7200 COMMONWEALTH AVE 50 FOUND/ABANDONED PROPERTY
190821578099 8-21 22:16 1800 W EDGEWOOD AVE 13 SUSPICIOUS PERSON
190821578100 8-21 22:16 KINGS RD AND PEARCE ST 1050 TRAFFIC STOP
190821578098 8-21 22:15 8900 HERLONG RD 12 RECKLESS DRIVER
190821578093 8-21 22:13 5700 LEXINGTON AVE 13 SUSPICIOUS PERSON
190821578094 8-21 22:13 7900 PEARL ST 13 SUSPICIOUS PERSON
190821578079 8-21 22:12 4700 POLARIS ST 2 63 DISPUTE IMPAIRED/INTOXICATED
190821578092 8-21 22:11 KINGS/SPIRES 1050 TRAFFIC STOP
190821578043 8-21 22:11 LUNA ST AND E I10 EXPWY 16 ROAD OBSTRUCTION
190821578090 8-21 22:10 3000 SOUTHSIDE BLVD 1050 TRAFFIC STOP
190821578044 8-21 22:10 5100 N MAIN ST 21B BURGLARY BUSINESS
190821578089 8-21 22:10 HILLMAN DR AND FALCON ST 1050 TRAFFIC STOP
190821578088 8-21 22:10 OLD KINGS RD AND N EDGEWOOD AVE 1050 TRAFFIC STOP
190821578087 8-21 22:10 8500 HARE AVE 1050 TRAFFIC STOP
190821578080 8-21 22:09 SAN MARCO BLVD AND PRUDENTIAL DR 4 AUTO CRASH
190821578083 8-21 22:09 SUTTON LAKES BLVD AND ATLANTIC BLVD 1050 TRAFFIC STOP
190821578082 8-21 22:08 12000 NORMANDY BLVD 1050 TRAFFIC STOP
190821578081 8-21 22:08 BEACH BLVD AND SOUTHSIDE BLVD 1050 TRAFFIC STOP
190821578062 8-21 22:05 300 W 24TH ST 33 DISCHARGING OF FIREARM
190821578016 8-21 22:04 6700 VAN GUNDY RD 73 DRUG INVESTIGATION
190821578069 8-21 22:04 4000 UNIVERSITY BLVD 0 60 SUICIDE THREAT W/WEAPON
190821578071 8-21 22:04 N I95 EXPWY AND W FORSYTH ST 1050 TRAFFIC STOP
190821578070 8-21 22:03 1900 N OLD MIDDLEBURG RD 12 RECKLESS DRIVER
190821578067 8-21 22:02 6800 WILSON BLVD 1050 TRAFFIC STOP
190821578065 8-21 22:01 4300 SUNBEAM RD 64 NOISE COMPLAINT
190821578057 8-21 21:59 1500 S LANE AVE 88 ASSAULT
190821578064 8-21 21:59 3000 SOUTHSIDE BLVD 1050 TRAFFIC STOP
190821578063 8-21 21:59 2500 N OLD MIDDLEBURG RD 1050 TRAFFIC STOP
190821578060 8-21 21:58 ATLANTIC BLVD AND EMPIRE POINT 1050 TRAFFIC STOP
190821577982 8-21 21:57 10700 ANDERS BLVD 22 DOMESTIC
190821578058 8-21 21:57 ATLANTIC BLVD AND SUTTON LAKES BLVD 1050 TRAFFIC STOP
190821578055 8-21 21:56 S LANE AVE AND WILSON BLVD 1050 TRAFFIC STOP
190821578042 8-21 21:56 500 MAXWELL RD 96 ASSIST MOTORIST
190821578054 8-21 21:56 MONCRIEF RD AND W 31ST ST 1050 TRAFFIC STOP
190821578052 8-21 21:55 FRANKLIN ST AND E 1ST ST 10R VEHICLE THEFT RECOVERY
190821578051 8-21 21:54 S ST JOHNS BLUFF RD AND BAHIA DR 1050 TRAFFIC STOP
190821578036 8-21 21:53 5200 E LA VENTURA DR 63 DISPUTE
190821578049 8-21 21:53 12000 NORMANDY BLVD 1050 TRAFFIC STOP
190821578047 8-21 21:52 KINGS RD AND FAIRFAX ST 1050 TRAFFIC STOP
190821578040 8-21 21:49 9500 ARLINGTON EXPWY 1050 TRAFFIC STOP
190821577979 8-21 21:48 7100 NATAL AVE 2 22 DOMESTIC DISTURBANCE
190821578038 8-21 21:48 11100 ATLANTIC BLVD 1050 TRAFFIC STOP
190821578037 8-21 21:48 HYDE PARK RD AND SAN JUAN AVE 1050 TRAFFIC STOP
190821578035 8-21 21:46 BURKE ST AND S MCDUFF AVE 1050 TRAFFIC STOP
190821578034 8-21 21:46 11500 ATLANTIC BLVD 1050 TRAFFIC STOP
190821578023 8-21 21:46 100 U N F DR 76 ASSIST OTHER AGENCY
190821578033 8-21 21:45 SOUTHSIDE BLVD AND HOGAN RD 1050 TRAFFIC STOP
190821578032 8-21 21:45 CLEVELAND RD AND W 45TH ST 12 RECKLESS DRIVER
190821577984 8-21 21:45 5700 BELAFONTE DR 22 DOMESTIC
190821578030 8-21 21:44 HYDE PARK CIR AND HYDE PARK PL 1050 TRAFFIC STOP
190821578029 8-21 21:44 MERCHANTS WAY AND ARGYLE FOREST BLVD 1050 TRAFFIC STOP
190821577925 8-21 21:44 8000 PHILIPS HWY 22 DOMESTIC
190821578028 8-21 21:43 ATLANTIC BLVD AND S ST JOHNS BLUFF RD 1050 TRAFFIC STOP
190821578027 8-21 21:43 13000 NORMANDY 1050 TRAFFIC STOP
190821578026 8-21 21:43 8900 HERLONG RD 12 RECKLESS DRIVER
190821578003 8-21 21:43 1400 W 18TH ST 22 DOMESTIC
190821578013 8-21 21:43 100 BAISDEN RD 22 DOMESTIC
190821578025 8-21 21:43 LENOX AVE AND PLYMOUTH ST 1050 TRAFFIC STOP
190821578024 8-21 21:43 NORMANDY/LE BRUN 1050 TRAFFIC STOP
190821578008 8-21 21:42 10700 BEACH BLVD 76 ASSIST OTHER AGENCY
190821577941 8-21 21:42 8700 BAYMEADOWS RD 63 DISPUTE
190821578021 8-21 21:41 95NB/HECKSCHER 1050 TRAFFIC STOP
190821578018 8-21 21:41 PLYMOUTH ST AND S ELLIS RD 13 SUSPICIOUS PERSON
190821577991 8-21 21:40 6800 NORMANDY BLVD 3 HIT AND RUN CRASH
190821577964 8-21 21:40 RESTLAWN DR AND VAN GUNDY RD 4 AUTO CRASH
190821578015 8-21 21:40 SAN JUAN AVE AND LINDBERG DR 1050 TRAFFIC STOP
190821577944 8-21 21:39 9200 1ST AVE 13 SUSPICIOUS PERSON
190821578007 8-21 21:39 1000 S US 301 HWY 2 63 DISPUTE IMPAIRED/INTOXICATED
190821578006 8-21 21:38 5600 COLLINS RD 3388 DISCHARGING FIREARM AT PERSON
190821578011 8-21 21:37 NORMANDY/MEMORIAL PARK 1050 TRAFFIC STOP
190821578004 8-21 21:37 500 N RENNE DR 22 DOMESTIC
190821577914 8-21 21:37 ATLANTIC BLVD AND HODGES BLVD 4 AUTO CRASH
190821578010 8-21 21:37 8400 118TH ST 13 SUSPICIOUS PERSON
190821578009 8-21 21:36 MERRILL RD AND STARDUST CT 1050 TRAFFIC STOP
190821577977 8-21 21:36 5200 COLLINS RD 49 REPORT TO HOSPITAL
190821577994 8-21 21:35 800 MELSON AVE 13 SUSPICIOUS PERSON
190821578000 8-21 21:35 1600 DUNN AVE 76 ASSIST OTHER AGENCY
190821578002 8-21 21:34 S LANE AVE AND HYDE GROVE AVE 1050 TRAFFIC STOP
190821577957 8-21 21:34 1000 S US 301 HWY 88 ASSAULT
190821577998 8-21 21:33 SUTTON LAKES BLVD AND ATLANTIC BLVD 1050 TRAFFIC STOP
190821577855 8-21 21:33 4300 SALISBURY RD 63 DISPUTE
190821577997 8-21 21:33 2500 OLD MIDDLEBURG 1050 TRAFFIC STOP
190821577993 8-21 21:33 8500 N DEVOE ST 8 MISSING PERSON
190821577996 8-21 21:32 1200 CAHOON RD 1050 TRAFFIC STOP
190821577995 8-21 21:32 DELLWOOD AVE AND S MCDUFF AVE 1050 TRAFFIC STOP
190821577992 8-21 21:32 12000 NORMANDY BLVD 1050 TRAFFIC STOP
190821577959 8-21 21:30 1500 N CRABAPPLE COVE CT 63 DISPUTE
190821577990 8-21 21:30 S LANE AVE AND WILEY RD 1050 TRAFFIC STOP
190821577912 8-21 21:28 11100 WINDLESHAM CT 27 MENTALLY ILL PERSON
190821577986 8-21 21:28 ATL/SUTTON LAKES 1050 TRAFFIC STOP
190821577985 8-21 21:27 11500 ATLANTIC 1050 TRAFFIC STOP
190821577980 8-21 21:27 200 UNIVERSITY BLVD 60 SUICIDE OR ATTEMPT
190821577978 8-21 21:26 1100 MARGARET ST 26EB PERSON WITH EXTREME BEHAVIOR
190821577983 8-21 21:26 NORWOOD/I95 1050 TRAFFIC STOP
190821577981 8-21 21:26 POST ST AND MELBA ST 1050 TRAFFIC STOP
190821577970 8-21 21:24 13400 GRAN BAY PKWY 8 MISSING PERSON
190821577974 8-21 21:24 2400 W EDGEWOOD AVE 73 DRUG INVESTIGATION
190821577973 8-21 21:24 13000 NORMANDY BLVD 1050 TRAFFIC STOP
190821577972 8-21 21:24 S MCDUFF AVE AND NOLAN ST 1050 TRAFFIC STOP
190821577971 8-21 21:24 13400 ATLANTIC BLVD 1050 TRAFFIC STOP
190821577968 8-21 21:23 NORWOOD AVE AND W 44TH ST 1050 TRAFFIC STOP
190821577960 8-21 21:21 8400 BARCELONA AVE 60 SUICIDE OR ATTEMPT
190821577965 8-21 21:21 1000 WINSTONIAN WAY ST 1050 TRAFFIC STOP
190821577963 8-21 21:21 MELSON AVE AND COLUMBUS AVE 13 SUSPICIOUS PERSON
190821577962 8-21 21:21 17/DAVIS 1050 TRAFFIC STOP
190821577961 8-21 21:20 NORMANDY BLVD AND MEMORIAL PARK RD 1050 TRAFFIC STOP
190821577954 8-21 21:19 800 MELSON AVE 13 SUSPICIOUS PERSON
190821577955 8-21 21:18 300 W BAY ST 76 ASSIST OTHER AGENCY
190821577948 8-21 21:18 4700 POLARIS ST 1066 CANCEL
190821577956 8-21 21:18 CLYDE DR AND LEM TURNER RD 12 RECKLESS DRIVER
190821577952 8-21 21:16 BEACH BLVD AND FOREST BLVD 13 SUSPICIOUS PERSON
190821577951 8-21 21:16 S LANE AVE AND NORMANDY BLVD 1050 TRAFFIC STOP
190821577933 8-21 21:15 1300 N DAVIS ST 63 DISPUTE
190821577890 8-21 21:14 3200 HARTLEY RD 22 DOMESTIC
190821577950 8-21 21:14 FT CAROLINE RD AND CESERY BLVD 1050 TRAFFIC STOP
190821577918 8-21 21:14 8200 STELLING DR 8 MISSING PERSON
190821577910 8-21 21:13 3900 SALISBURY RD 8 MISSING PERSON
190821577946 8-21 21:12 400 STOCKTON ST 63 DISPUTE
190821577947 8-21 21:12 S MCDUFF AVE AND PHYLLIS ST 1050 TRAFFIC STOP
190821577939 8-21 21:11 4600 WRICO DR 60 SUICIDE OR ATTEMPT
190821577942 8-21 21:11 8400 PLAINFIELD AVE 37 UNVERIFIED 911 CALL
190821577945 8-21 21:11 S LANE AVE AND GRACE LN 1050 TRAFFIC STOP
190821577943 8-21 21:11 N MAIN ST AND EASTPORT RD 96 ASSIST MOTORIST
190821577940 8-21 21:10 LONE STAR RD AND TOWNSEND BLVD 1050 TRAFFIC STOP
190821577895 8-21 21:09 400 HARLEY DR 19 ANIMAL INVESTIGATION
190821577903 8-21 21:09 9800 BEACH BLVD 73 DRUG INVESTIGATION
190821577887 8-21 21:09 6400 ARGYLE FOREST BLVD 63 DISPUTE
190821577938 8-21 21:08 2500 N OLD MIDDLEBURG RD 1050 TRAFFIC STOP
190821577937 8-21 21:07 8900 HERLONG RD 12 RECKLESS DRIVER
190821577936 8-21 21:07 NEW BERLIN RD AND STARRATT RD 1050 TRAFFIC STOP
190821577935 8-21 21:06 DIGNAN ST AND S MCDUFF AVE 1050 TRAFFIC STOP
190821577932 8-21 21:06 6100 CLEVELAND RD 60 SUICIDE OR ATTEMPT
190821577930 8-21 21:06 HOGAN RD PUMPS 13 SUSPICIOUS PERSON
190821577929 8-21 21:05 BEACH BLVD AND HODGES BLVD 1050 TRAFFIC STOP
190821577915 8-21 21:05 100 W 6TH ST 63 DISPUTE
190821577924 8-21 21:04 ARLINGTON EXPWY AND N ARLINGTON RD 4 53 TRAFFIC CRASH PERSON INJURED
190821577923 8-21 21:02 FOREST ST AND MARGARET ST 1050 TRAFFIC STOP
190821577922 8-21 21:02 W BEAVER ST AND N EDNALEE AVE 1050 TRAFFIC STOP
190821577921 8-21 21:02 CECIL COMMERCE CENTER PKWY AND POW-MIA MEMORIAL PKWY 4 53 TRAFFIC CRASH PERSON INJURED
190821577920 8-21 21:01 S I295 EXPWY AND N MAIN ST 1050 TRAFFIC STOP
190821577909 8-21 21:01 2300 BETSY DR 63 DISPUTE
190821577917 8-21 21:00 ATLANTIC BLVD AND MONUMENT RD 13 SUSPICIOUS PERSON
190821577913 8-21 21:00 600 S EDGEWOOD AVE 1050 TRAFFIC STOP